Location: Most
(50.5330°N, 13.6500°E)
Time: 22:27:31
(UTC+01:00)

AO-27 - Visible Passes

Search period start: 22 January 2022 00:00
Search period end: 01 February 2022 00:00
Orbit: 784 x 798 km, 98.9° (Epoch: 22 January)

Date Brightness Start Highest point End Pass type
(mag) Time Alt. Az. Time Alt. Az. Time Alt. Az.
22 Jan 9.9 06:54:34 10° NE 06:59:02 29° E 07:03:29 10° SSE visible
22 Jan 7.6 18:17:08 10° SSE 18:22:18 72° ENE 18:27:30 10° NNW visible
22 Jan 10.2 19:58:38 10° SW 20:02:19 19° W 20:06:00 10° NW visible
23 Jan 10.6 06:26:13 10° NE 06:29:31 17° E 06:32:48 10° SE visible
23 Jan 8.0 17:48:21 10° SE 17:53:14 43° ENE 17:58:08 10° N visible
23 Jan 9.4 19:28:11 10° SSW 19:32:50 32° W 19:37:29 10° NNW visible
24 Jan 8.5 17:20:00 10° ESE 17:24:17 27° ENE 17:28:35 10° N visible
24 Jan 8.3 18:58:22 10° S 19:03:28 55° W 19:08:35 10° NNW visible
25 Jan 9.6 07:06:20 10° NNE 07:11:05 35° E 07:15:48 10° SSE visible
25 Jan 7.6 18:29:02 10° SSE 18:34:14 87° ENE 18:39:28 10° NNW visible
25 Jan 10.5 20:11:22 10° SW 20:14:24 16° W 20:17:28 10° NW visible
26 Jan 10.5 06:37:44 10° NE 06:41:37 21° E 06:45:28 10° SE visible
26 Jan 7.8 18:00:06 10° SE 18:05:07 52° ENE 18:10:10 10° N visible
26 Jan 9.7 19:40:32 10° SSW 19:44:53 26° W 19:49:14 10° NW visible
27 Jan 10.9 06:10:08 10° ENE 06:12:00 12° E 06:13:53 10° ESE visible
27 Jan 8.3 17:31:34 10° ESE 17:36:08 32° ENE 17:40:42 10° N visible
27 Jan 8.8 19:10:30 10° S 19:15:28 45° W 19:20:27 10° NNW visible
28 Jan 7.8 18:41:00 10° SSE 18:46:11 77° WSW 18:51:24 10° NNW visible
28 Jan 10.7 20:24:26 10° WSW 20:26:32 12° W 20:28:38 10° WNW visible
29 Jan 10.2 06:49:23 10° NE 06:53:41 26° E 06:57:57 10° SSE visible
29 Jan 7.6 18:11:54 10° SSE 18:17:01 64° ENE 18:22:10 10° N visible
29 Jan 10.0 19:53:00 10° SW 19:56:56 22° W 20:00:54 10° NW visible
30 Jan 10.7 06:21:12 10° NE 06:24:08 15° E 06:27:03 10° ESE visible
30 Jan 8.1 17:43:13 10° SE 17:47:59 39° ENE 17:52:46 10° N visible
30 Jan 9.2 19:22:43 10° SSW 19:27:29 36° W 19:32:16 10° NNW visible
31 Jan 8.1 18:53:01 10° S 18:58:09 62° WSW 19:03:19 10° NNW visible
